STARLINK-1663, 46535

Orbit data source: Space-Track

STARLINK-1663, 46535 is a payload satellite owned by SpaceX/Seattle (US) in LEO that was launched on Tue, 06 Oct 2020 UTC via an FALCON 9 launch vehicle from the Air Force Eastern Test Range (AFETR). Payload-class satellites include a variety of spacecraft equipped with specific instruments for various scientific and technological missions. These include communications satellites like Starlink; space stations such as the ISS; scientific satellites like the Hubble; Earth observation satellites from companies like Planet Labs, Umbra, and HawkEye 360; GPS; miniature CubeSats for education and research; and military/defense satellites.

Loading next visibility...
Identifier
46535, 2020-070D
Orbit
LEO
Country
Flag of USUS
Related business
Manufacturer
SpaceX/Seattle
Mission
Operational Commercial Communications
Bus & Motor
STARLINK, Unknown motor
Mass
260 kg wet, ~248 kg dry
Launch date (UTC)
2020-10-06 (5 years ago)
Launch vehicle
FALCON 9
Launch site
Air Force Eastern Test Range (AFETR)
Object type
Payload
Rocket body
Debris
Shape & HBR
Box + 1 Pan, 10.1 m
Radar Cross Section
13.562 m², Large (>1 m²)

Expand to show TLE details & history
Last TLE update: 3 hours ago

TLE from 3 hours ago
0 STARLINK-1663
1 46535U 20070D   25291.33336806  .02083629  00000-0  96761-1 0  9993
2 46535  53.0535  95.4453 0001098  81.6061 302.7197 15.16325902  5745
Epoch: 2025-10-18T08:00Z
TLE epoch observation values (Epoch: 2025-10-18T08:00:03.000Z)
Latitude
19.2507°
Longitude
-36.49138°
Altitude
516.943 km
Speed
7.608 km/s
True Right ascension
07h 22m 20s
True Declination
19° 08' 25"
Sunlit
Object was in daylight at epoch
Visualization orbit readout
Latitude
Unknown
Longitude
Unknown
Altitude
Unknown
Speed
Unknown
Apparent Right ascension
Unknown
Apparent Declination
Unknown
Sunlit
N/A
Visualization observer readout
Local Sidereal Time
06:05:06
Azimuth
Unknown
Elevation
Unknown
Doppler factor
Unknown
Orbital elements
Apogee altitude
517.985 km
Perigee altitude
516.471 km
Semi-major axis
6,895.365 km
Eccentricity
0.00011
Inclination
53.0535°
RAAN
95.4453°
Arg. of periapsis
81.6061°
True anomaly
302.70911°
Mean anomaly
302.7197°
Eccentric anomaly
302.71441°
Mean motion
3.79059 °/min
Orbital period
94.97 mins
BSTAR
0.096761
Loading maneuver chart data...
Computing Atmospheric mass density...

Documentation

Showing up to 5 results
|